Regional Weather Roundup
Issued by NWS

Home | Current Version | Previous Version | Graphics & Text | Print | Product List | Glossary On
Versions: 1 2 3 4 5 6 7 8 9 10 11 12 13 14 15 16 17 18 19 20 21 22 23 24 25 26 27 28 29 30 31 32 33 34 35 36 37 38 39 40 41 42 43 44 45 46 47 48 49 50
000
ASUS45 KABQ 071601
RWRNM
NEW MEXICO REGIONAL WEATHER ROUNDUP
NATIONAL WEATHER SERVICE ALBUQUERQUE NM
900 AM MST WED DEC 07 2016

NOTE: "FAIR" MEANS FEW OR NO CLOUDS BELOW 12,000 FEET AGL WITH NO
       SIGNIFICANT WEATHER OR OBSTRUCTIONS TO VISION.

      THIS PRODUCT IS RELEASED AS TWO VERSIONS.  ONE VERSION NEAR
      THE TOP OF THE HOUR CONTAINING PRELIMINARY DATA FROM ALBUQUERQUE
      AND OTHER STATIONS.  A FINAL VERSION WITH ADDITIONAL DATA IS
      ISSUED ABOUT 10 MINUTES AFTER THE HOUR.

NMZ501-503-504-510>518-071700-
NORTHWEST PLATEAU/NORTHCENTRAL MOUNTAINS

CITY           SKY/WX    TMP DP  RH WIND       PRES   REMARKS
FARMINGTON     PTSUNNY   29  17  61 W13       30.06R WCI  19
LOS ALAMOS     CLOUDY    33  18  52 NW6       29.99R WCI  28
SANTA FE       CLOUDY    37  23  56 W8        29.99R WCI  31
TAOS           CLOUDY    28  16  59 W9        29.98R WCI  20
ANGEL FIRE     LGT SNOW  25  17  72 SW15G24   29.95R WCI  13

$$
NMZ402-403-502-505>509-071700-
WESTCENTRAL MOUNTAINS/SOUTHWEST MOUNTAINS

CITY           SKY/WX    TMP DP  RH WIND       PRES   REMARKS
GALLUP         PTSUNNY   27  19  72 NE6       30.06R WCI  20
GRANTS         CLOUDY    32  20  62 N10       30.06R WCI  23
SILVER CITY    FAIR      41  32  68 W5        30.06R

$$
NMZ407-409-411-412-071700-
SOUTHERN DESERTS

CITY           SKY/WX    TMP DP  RH WIND       PRES   REMARKS
DEMING         FAIR      46  33  60 W9        30.05R
LAS CRUCES     FAIR      45  31  58 W9        30.05R
HOLLOMAN AFB   FAIR      46  30  54 NE3       30.05R
T OR C         FAIR      44  29  55 E5        30.02R

$$
NMZ519>523-071700-
CENTRAL VALLEYS/CENTRAL HIGHLANDS

CITY           SKY/WX    TMP DP  RH WIND       PRES   REMARKS
ALBUQUERQUE    CLOUDY    39  26  59 N7        30.02R WCI  34
DOUBLE EAGLE   PTSUNNY   36  25  64 MISG      30.02R
CLINES CORNERS FAIR      38  24  57 W21G31    29.98R WCI  28
BELEN          CLOUDY    42  26  53 SW10      30.02R
SOCORRO        FAIR      46  24  43 NW8       30.03R

$$
NMZ524>526-539-540-071700-
SOUTHCENTRAL MOUNTAINS

CITY           SKY/WX    TMP DP  RH WIND       PRES   REMARKS
RUIDOSO        NOT AVBL

$$
NMZ527>531-071700-
NORTHEAST HIGHLANDS/NORTHEAST PLAINS

CITY           SKY/WX    TMP DP  RH WIND       PRES   REMARKS
LAS VEGAS      FAIR      38  18  44 W18G26    29.92R WCI  28
RATON          FAIR      26   9  48 E20       29.91R WCI  12
CLAYTON        FAIR      27  14  58 NW18G31   29.99R WCI  14

$$
NMZ532>537-071700-
EASTCENTRAL PLAINS

CITY           SKY/WX    TMP DP  RH WIND       PRES   REMARKS
TUCUMCARI      FAIR      32  23  69 NE15      29.99R WCI  22
CANNON AFB     FAIR      31  31 100 NW5       29.99R WCI  26
CLOVIS AIRPORT CLOUDY    28  25  86 CALM      29.99R VSB 1/4

$$
NMZ028-029-538-071700-
SOUTHEAST PLAINS

CITY           SKY/WX    TMP DP  RH WIND       PRES   REMARKS
ROSWELL        FAIR      31  26  82 N7        29.98R WCI  24
ARTESIA        FAIR      34  34 100 CALM      29.98R
CARLSBAD       FOG       35  35 100 E6        29.97R VSB 1/4 WCI  30
HOBBS          FOG       36  36 100 SE3       29.99R VSB 1/2


$$




USA.gov is the U.S. government's official web portal to all federal, state and local government web resources and services.